[Iaude] MPEC S156: 2023 RA35 [a=1.61,e=0.25,i=15.9,H=24.3]

mpec at marsden.cfa.harvard.edu mpec at marsden.cfa.harvard.edu
Fri Sep 22 13:16:01 EDT 2023


M.P.E.C. 2023-S156                           Issued 2023 September 22, 17:14 UT

     The Minor Planet Electronic Circulars contain information on unusual
         minor planets, routine data on comets and natural satellites,
         and occasional editorial announcements.  They are published
    on behalf of Division F of the International Astronomical Union by the
          Minor Planet Center, Smithsonian Astrophysical Observatory,
                          Cambridge, MA 02138, U.S.A.
			  
             Prepared using the Tamkin Foundation Computer Network

                              MPC at CFA.HARVARD.EDU
            URL https://www.minorplanetcenter.net/    ISSN 1523-6714

                                   2023 RA35                                    


Observations:
     K23R35A* C2023 09 15.43175200 14 06.365-22 04 30.86         22.02wXES156F51
     K23R35A  C2023 09 15.44294300 14 04.623-22 03 53.87         22.73wXES156F51
     K23R35A  C2023 09 15.45414800 14 02.879-22 03 16.43         22.15wXES156F51
     K23R35A 3C2023 09 16.49437400 11 36.780-21 04 28.35         22.16GVES156T14
     K23R35A 3C2023 09 16.49535300 11 36.625-21 04 24.94         22.04GVES156T14
     K23R35A 3C2023 09 16.49633700 11 36.469-21 04 21.53         22.23GVES156T14
     K23R35A 3C2023 09 16.49731400 11 36.320-21 04 18.20         22.22GVES156T14
     K23R35A 3C2023 09 18.52250400 06 46.544-19 04 16.66         22.07GVES156T14
     K23R35A 3C2023 09 18.52357200 06 46.373-19 04 12.73         22.00GVES156T14
     K23R35A 3C2023 09 18.52455900 06 46.214-19 04 09.08         21.95GVES156T14

Observer details:
F51 Pan-STARRS 1, Haleakala.  Observers J. Bulger, T. Lowe, P. Minguez, A.
    Schultz, I. Smith.  Measurers K. Chambers, T. de Boer, J. Bulger, J.
    Fairlamb, H. Gao, M. Huber, C.-C. Lin, T. Lowe, E. Magnier, P. Minguez, Y.
    Ramanjooloo, A. Schultz, I. Smith, R. Wainscoat, R. Weryk.  1.8-m Ritchey-
    Chretien + CCD.
T14 Canada-France-Hawaii Telescope, Maunakea.  Observers R. Wainscoat, H.
    Januszewski, H. Flewelling.  Measurers R. Weryk, R. Wainscoat.  3.6-m
    Canada-France-Hawaii Telescope + CCD.

Orbital elements:
2023 RA35                                                Earth MOID = 0.2037 AU
Epoch 2023 Sept. 13.0 TT = JDT 2460200.5                Bell                    
M 349.04709              (2000.0)            P               Q                  
n   0.48307577     Peri.    2.48939     +0.98895949     -0.14531475             
a   1.6086413      Node     6.10005     +0.13080165     +0.76395796             
e   0.2506648      Incl.   15.85389     +0.06964226     +0.62869059             
P   2.04           H   24.33          G   0.15           U   9                  
Residuals in seconds of arc
230915 F51  0.1+  0.0     230916 T14  0.0   0.0     230918 T14  0.0   0.0
230915 F51  0.0   0.1-    230916 T14  0.0   0.0     230918 T14  0.0   0.0
230915 F51  0.1-  0.0     230916 T14  0.0   0.0
230916 T14  0.0   0.0     230918 T14  0.0   0.0

Ephemeris:
2023 RA35                a,e,i = 1.61, 0.25, 16                  q = 1.2054
Date    TT    R. A. (2000) Decl.     Delta      r    Elong.  Phase     V
2023 08 23    00 48 14.5 -35 48 50   0.3080  1.2519   136.2    34.0    23.7
...
2023 09 07    00 31 30.6 -28 45 03   0.2468  1.2260   148.9    25.1    22.9
...
2023 09 15    00 15 05.5 -22 27 55   0.2239  1.2162   157.9    18.2    22.4
...
2023 09 21    00 00 46.8 -16 27 55   0.2132  1.2109   164.4    12.9    22.1
2023 09 22    23 58 20.0 -15 22 22   0.2120  1.2102   165.2    12.2    22.1
2023 09 23    23 55 53.3 -14 15 32   0.2110  1.2095   166.0    11.6    22.1
...
2023 09 29    23 41 34.1 -07 15 28   0.2092  1.2065   166.7    11.0    22.0
...
2023 10 07    23 24 54.7 +02 08 29   0.2177  1.2055   159.0    17.3    22.3
...
2023 10 22    23 07 00.0 +16 30 42   0.2628  1.2122   141.5    30.8    23.2

M. P. C. Staff               (C) Copyright 2023 MPC           M.P.E.C. 2023-S156





More information about the Iaude mailing list